Location: Casa Rossa
(45.2389°N, 12.2056°E)
Time: 23:46:00
(UTC+00:00)

Abrixas rocket - Pass Details

Date: 14 July 2020
Orbit: 338 x 346 km, 48.4° (Epoch: 13 August)

Event Time Altitude Azimuth Distance (km) Brightness Sun altitude
Exits shadow 01:34:26 10° 292° (WNW) 1,314 4.6 -16.2°
Reaches altitude 10° 01:34:31 10° 293° (WNW) 1,282 4.6 -16.2°
Maximum altitude 01:37:21 65° 16° (NNE) 375 2.2 -15.9°
Drops below altitude 10° 01:40:12 10° 100° (E) 1,277 5.0 -15.6°
Sets 01:42:12 0° 103° (ESE) 2,114 6.1 -15.4°
